SCP
0 0 0 0 0 0 0 0 0 0 0 0 0 0 0 0 0 0 0 0 0 0 0 0 0 0 0 0 0 0 0 0 0 0 0 0 0 0 0 0 0 0 0
0 0 0 0 0 0 0 0 0 0 0 0 0 0 0 0 0 0 0 0 0 0 0 0 0 0 0 0 0 0 0 0 0 0 0 0 0 0 0 0 0 0 0
0 0 0 0 0 0 0 0 0 0 0 0 0 0 0 0 0 0 0 0 0 0 0 0 0 0 0 0 0 0 0 0 0 0 0 0 0 0 0 0 0 0 0
0 0 0 0 0 0 0 0 0 0 0 0 0 0 0 0 0 0 0 0 0 0 0 0 0 0 0 0 0 0 0 0 0 0 0 0 0 0 0 0 0 0 0
0 0 0 0 0 0 0 0 0 0 0 0 0 0 0 0 0 0 0 0 0 0 0 0 0 0 0 0 0 0 0 0 0 0 0 0 0 0 0 0 0 0 0
0 0 0 0 0 0 0 0 0 0 0 0 0 0 0 0 0 0 0 0 0 0 0 0 0 0 0 0 0 0 0 0 0 0 0 0 0 0 0 0 0 0 0
0 0 0 0 0 0 0 0 0 0 0 0 0 0 0 0 0 0 0 0 0 0 0 0 0 0 0 0 0 0 0 0 0 0 0 0 0 0 0 0 0 0 0
0 0 0 0 0 0 0 0 0 0 0 0 0 0 0 0 0 0 0 0 0 0 0 0 0 0 0 0 0 0 0 0 0 0 0 0 0 0 0 0 0 0 0
0 0 0 0 0 0 0 0 0 0 0 0 0 0 0 0 0 0 0 0 0 0 0 0 0 0 0 0 0 0 0 0 0 0 0 0 0 0 0 0 0 0 0
0 0 0 0 0 0 0 0 0 0 0 0 0 0 0 0 0 0 0 0 0 0 0 0 0 0 0 0 0 0 0 0 0 0 0 0 0 0 0 0 0 0 0
0 0 0 0 0 0 0 0 0 0 0 0 0 0 0 0 0 0 0 0 0 0 0 0 0 0 0 0 0 0 0 0 0 0 0 0 0 0 0 0 0 0 0
0 0 0 0 0 0 0 0 0 0 0 0 0 0 0 0 0 0 0 0 0 0 0 0 0 0 0 0 0 0 0 0 0 0 0 0 0 0 0 0 0 0 0
0 0 0 0 0 0 0 0 0 0 0 0 0 0 0 0 0 0 0 0 0 0 0 0 0 0 0 0 0 0 0 0 0 0 0 0 0 0 0 0 0 0 0
0 0 0 0 0 0 0 0 0 0 0 0 0 0 0 0 0 0 0 0 0 0 0 0 0 0 0 0 0 0 0 0 0 0 0 0 0 0 0 0 0 0 0
0 0 0 0 0 0 0 0 0 0 0 0 0 0 0 0 0 0 0 0 0 0 0 0 0 0 0 0 0 0 0 0 0 0 0 0 0 0 0 0 0 0 0
0 0 0 0 0 0 0 0 0 0 0 0 0 0 0 0 0 0 0 0 0 0 0 0 0 0 0 0 0 0 0 0 0 0 0 0 0 0 0 0 0 0 0
0 0 0 0 0 0 0 0 0 0 0 0 0 0 0 0 0 0 0 0 0 0 0 0 0 0 0 0 0 0 0 0 0 0 0 0 0 0 0 0 0 0 0
0 0 0 0 0 0 0 0 0 0 0 0 0 0 0 0 0 0 0 0 0 0 0 0 0 0 0 0 0 0 0 0 0 0 0 0 0 0 0 0 0 0 0
0 0 0 0 0 0 0 0 0 0 0 0 0 0 0 0 0 0 0 0 0 0 0 0 0 0 0 0 0 0 0 0 0 0 0 0 0 0 0 0 0 0 0
0 0 0 0 0 0 0 0 0 0 0 0 0 0 0 0 0 0 0 0 0 0 0 0 0 0 0 0 0 0 0 0 0 0 0 0 0 0 0 0 0 0 0
0 0 0 0 0 0 0 0 0 0 0 0 0 0 0 0 0 0 0 0 0 0 0 0 0 0 0 0 0 0 0 0 0 0 0 0 0 0 0 0 0 0 0
0 0 0 0 0 0 0 0 0 0 0 0 0 0 0 0 0 0 0 0 0 0 0 0 0 0 0 0 0 0 0 0 0 0 0 0 0 0 0 0 0 0 0
0 0 0 0 0 0 0 0 0 0 0 0 0 0 0 0 0 0 0 0 0 0 0 0 0 0 0 0 0 0 0 0 0 0 0 0 0 0 0 0 0 0 0
0 0 0 0 0 0 0 0 0 0 0 0 0 0 0 0 0 0 0 0 0 0 0 0 0 0 0 0 0 0 0 0 0 0 0 0 0 0 0 0 0 0 0
0 0 0 0 0 0 0 0 0 0 0 0 0 0 0 0 0 0 0 0 0 0 0 0 0 0 0 0 0 0 0 0 0 0 0 0 0 0 0 0 0 0 0
0 0 0 0 0 0 0 0 0 0 0 0 0 0 0 0 0 0 0 0 0 0 0 0 0 0 0 0 0 0 0 0 0 0 0 0 0 0 0 0 0 0 0
Wind_Speed
2 2 1 2 3 4 5 5 5 6 6 7 8 8 9 9 9 9 9 9 9 8 8 9 9 9 9 8 8 9 9 9 9 9 9 8 7 7 7 7 6 4 6
1 1 2 3 4 4 4 4 5 5 6 7 8 8 9 9 9 9 9 9 9 8 9 9 9 9 10 9 9 9 9 10 10 9 9 7 7 7 7 6 6 4 7
2 1 1 3 4 4 4 4 5 6 6 7 8 8 8 8 8 9 9 9 8 8 8 9 9 9 9 10 10 10 10 10 10 9 8 4 4 7 7 7 7 7 7
2 1 2 4 5 5 5 5 6 7 7 7 7 7 8 8 8 9 9 9 9 9 9 9 9 9 9 9 10 10 10 10 10 9 5 4 3 6 7 7 7 7 6
2 2 1 5 5 6 6 7 8 8 7 7 7 7 8 8 9 9 9 9 10 10 10 10 10 10 10 10 10 10 10 10 10 8 5 4 3 6 7 7 7 7 6
2 2 1 5 6 6 7 7 8 8 7 7 7 7 8 8 9 9 9 9 10 10 10 11 11 11 10 10 11 11 11 11 9 5 5 4 3 7 8 7 7 7 7
2 1 1 5 6 6 7 7 8 8 8 8 9 9 9 9 9 9 9 9 10 10 10 11 11 11 11 11 11 11 11 11 7 5 4 4 4 8 9 8 8 8 8
3 2 2 4 5 6 6 7 7 7 7 8 9 10 9 9 9 9 9 10 10 10 11 11 11 11 11 12 12 11 11 10 7 6 4 4 6 8 9 9 9 9 8
2 2 2 2 3 4 6 6 6 7 7 8 9 9 9 8 8 9 9 9 9 10 11 11 11 11 12 12 12 12 12 12 6 4 5 3 7 8 9 9 9 9 9
2 2 2 2 2 2 2 4 5 6 7 7 8 8 8 8 8 8 8 9 9 10 10 11 11 11 12 12 12 12 12 9 5 5 3 4 7 8 9 9 10 10 9
2 1 1 1 2 2 2 3 4 5 6 6 6 7 7 4 4 4 7 8 9 10 10 11 11 12 12 11 12 12 9 4 4 3 3 7 9 10 11 10 10 10 10
2 1 1 1 1 1 1 2 2 3 3 4 3 4 3 3 3 5 7 9 9 9 10 11 12 11 9 5 7 9 4 5 4 3 4 9 10 10 11 11 11 11 11
3 2 2 1 1 1 1 1 1 2 2 3 3 3 3 3 3 4 3 4 5 7 5 7 7 5 5 4 4 4 5 4 3 3 5 10 10 10 11 11 11 11 11
2 2 2 2 2 1 1 1 1 1 1 2 2 2 2 2 3 2 2 3 3 2 4 4 3 5 5 5 5 5 6 4 4 3 4 10 10 10 11 11 11 11 11
2 2 2 2 2 2 1 1 1 1 1 1 1 2 2 2 2 2 2 2 3 3 3 3 4 4 5 5 5 5 5 5 5 5 4 9 11 11 11 11 11 11 11
2 3 2 3 3 2 2 1 1 1 1 1 1 1 2 2 2 2 2 2 2 2 3 3 4 4 3 3 5 5 5 4 5 5 4 6 10 10 11 11 11 11 11
2 2 2 3 3 2 2 1 1 1 1 1 1 1 2 2 3 2 2 2 2 2 3 3 4 3 3 4 4 4 4 4 4 4 4 4 5 8 10 10 10 10 10
1 1 1 2 2 2 2 1 1 1 1 1 1 1 2 2 3 3 2 2 2 2 2 3 3 3 3 3 3 3 3 3 4 4 4 4 4 4 6 9 9 9 9
2 2 1 1 2 2 2 1 2 2 1 1 1 1 2 2 3 3 2 2 2 3 2 3 2 2 2 2 2 3 3 3 3 3 3 4 4 4 3 6 8 8 8
1 2 2 1 2 2 2 1 1 2 1 1 1 1 2 2 3 3 2 2 3 3 2 2 3 3 2 2 2 3 3 2 2 2 2 3 3 3 4 4 4 5 7
1 1 2 2 2 2 1 1 1 1 0 1 1 2 2 2 3 3 2 2 2 2 2 3 3 3 2 1 2 2 3 3 3 2 2 2 3 3 3 3 3 3 3
2 2 1 1 2 1 1 1 1 2 1 0 1 1 1 2 2 3 3 2 2 3 3 2 2 2 1 1 2 2 2 3 3 3 2 2 2 2 3 3 3 3 3
1 2 2 1 1 1 1 2 2 2 2 1 1 1 1 1 2 2 3 3 3 3 2 2 2 3 2 1 1 2 2 1 2 2 2 2 2 2 2 2 2 2 2
2 1 2 2 1 1 2 2 3 2 2 1 1 0 0 1 1 2 3 3 3 2 2 2 2 2 3 1 1 1 1 3 2 1 2 2 2 1 1 1 1 2 2
2 2 2 2 1 1 2 3 3 3 2 1 1 1 1 0 0 1 2 2 2 2 2 2 2 2 2 2 2 1 1 1 1 2 1 2 2 2 1 1 0 1 1
1 1 2 2 1 1 2 2 3 4 3 3 2 1 1 0 0 0 1 2 2 2 2 2 2 2 2 2 2 2 2 2 2 2 2 1 1 2 2 1 1 0 1
Wind_Direction
275 270 212 109 103 100 93 94 91 88 86 87 86 84 80 77 76 77 80 81 82 81 81 81 78 78 77 77 82 86 86 87 90 89 91 95 98 98 95 89 84 77 91
197 244 168 112 102 96 98 96 97 93 90 88 88 85 82 79 78 79 79 81 83 83 82 80 79 77 75 76 80 82 83 82 83 84 86 84 86 90 91 88 85 82 88
136 180 147 107 99 93 88 81 94 104 96 92 90 88 85 82 81 80 78 79 81 83 84 80 79 79 75 75 78 81 82 83 81 79 77 63 72 84 83 82 85 83 83
130 112 119 110 100 91 82 80 96 104 98 94 90 90 89 87 84 83 81 78 77 78 80 79 79 78 76 76 79 82 82 81 79 73 60 52 60 79 79 79 84 82 82
102 85 116 108 98 90 80 80 94 97 95 90 87 89 93 91 87 83 82 79 76 72 72 74 75 74 75 75 77 79 79 78 75 65 53 47 47 77 78 76 78 80 77
95 72 94 105 98 93 86 81 85 88 87 86 85 92 97 94 87 82 81 78 77 74 72 73 73 70 70 75 75 76 78 76 67 54 50 48 51 73 77 76 74 78 77
111 78 81 108 102 93 87 84 82 81 79 80 87 94 95 92 88 83 80 78 75 74 76 77 73 71 71 72 74 76 78 75 64 54 47 45 59 70 72 72 71 74 74
123 97 75 100 99 96 94 90 87 82 79 80 84 87 87 86 83 80 78 76 74 75 77 78 75 73 73 72 73 75 73 71 63 54 42 39 60 67 69 72 71 72 71
94 91 68 62 73 87 96 96 92 85 80 80 83 86 85 83 81 79 77 78 79 79 80 81 79 76 76 76 74 72 69 64 51 42 43 40 66 71 71 73 74 74 71
74 79 78 61 58 60 69 92 93 89 86 82 82 81 75 71 72 76 75 78 80 80 82 79 77 74 74 76 74 69 64 55 42 36 27 48 72 78 78 77 77 76 72
115 72 87 76 54 57 65 79 77 77 77 74 73 77 64 47 46 57 69 75 77 78 79 79 78 75 71 72 72 67 58 44 38 30 27 60 72 77 77 76 77 73 72
179 186 156 120 81 59 72 62 49 53 55 57 58 59 56 50 45 53 58 68 72 74 75 77 77 71 63 53 59 59 46 40 34 24 43 66 73 79 80 78 75 70 68
189 190 175 161 121 95 70 75 59 57 57 55 62 65 65 57 49 49 45 48 54 63 61 65 64 57 56 53 52 49 44 41 28 22 39 62 69 75 79 79 76 73 71
174 195 176 155 139 138 112 87 81 78 74 75 74 75 78 72 60 55 55 53 55 59 69 65 68 65 62 56 56 54 45 39 30 23 31 54 63 72 79 77 75 74 74
182 192 180 169 160 148 119 113 108 108 111 112 99 90 100 101 89 72 64 63 63 67 77 76 72 68 62 55 53 54 47 39 34 33 22 45 57 64 73 75 75 74 74
194 189 173 166 163 148 139 144 142 145 133 114 114 119 117 116 110 97 80 70 66 73 81 84 80 75 64 61 54 48 43 38 35 34 29 32 46 57 64 71 74 73 72
202 187 175 174 153 151 155 172 153 137 122 122 128 124 119 120 119 112 97 83 75 85 88 82 72 70 69 61 51 43 41 36 36 33 31 27 26 43 54 63 69 71 71
184 168 188 174 152 159 154 161 134 122 121 131 130 124 120 127 129 119 111 104 101 94 93 91 78 73 61 57 47 32 33 32 33 35 35 29 27 27 34 50 60 65 69
183 171 167 144 140 156 136 120 114 107 114 124 116 118 128 131 129 123 118 113 109 97 90 99 78 89 82 65 57 39 27 30 23 35 35 29 29 30 25 33 42 50 61
168 170 159 144 137 134 111 93 80 75 70 91 108 123 132 130 127 121 114 110 107 102 90 90 92 76 83 82 68 47 25 25 29 28 23 26 25 28 31 34 29 26 39
124 139 152 160 165 145 129 130 120 122 18 35 73 104 121 132 133 126 120 116 114 117 123 120 106 86 65 68 69 33 12 23 35 26 16 25 23 23 32 33 31 28 16
151 150 150 160 162 168 169 150 130 123 109 114 64 75 96 126 136 140 131 132 128 119 115 122 117 107 79 71 106 88 21 356 3 18 15 26 22 24 28 28 32 30 21
172 181 169 160 151 157 138 111 89 73 55 41 43 48 42 111 129 133 140 134 133 138 147 155 150 137 141 75 101 135 139 213 313 339 2 17 15 25 14 16 34 27 25
214 186 156 158 145 148 144 145 146 153 168 200 178 147 89 95 119 136 139 140 142 145 153 176 166 151 141 148 83 78 141 156 151 321 337 347 0 19 9 13 26 24 31
198 173 164 152 149 147 149 160 159 158 174 158 115 104 93 50 103 139 145 143 146 152 160 159 148 153 154 159 161 146 108 81 121 147 256 323 343 341 346 337 356 11 16
150 136 135 136 147 153 145 152 162 164 160 150 144 146 151 67 356 136 158 158 161 164 167 167 160 155 159 157 162 165 164 164 180 159 175 234 304 318 335 328 325 316 353